Weather History for Morris, MN

Change the Weather History Date:

Friday, March 15, 2013

  Actual Average Record
Temperature  
Mean Temperature 28 °F -  
Max Temperature 32 °F 32 °F 62 °F (2003)
Min Temperature 24 °F 15 °F -14 °F (1997)
Degree Days  
Heating Degree Days 37    
Moisture  
Dew Point 26 °F    
Average Humidity 91    
Maximum Humidity 100    
Minimum Humidity 80    
Precipitation  
Precipitation 0.08 in - - ()
Sea Level Pressure  
Sea Level Pressure 29.92 in    
Wind  
Wind Speed 10 mph (NNE)    
Max Wind Speed 17 mph    
Max Gust Speed -    
Visibility 5 miles    
Events Snow    
Averages and records for this station are not official NWS values.
T = Trace of Precipitation, MM = Missing Value Source: NWS Daily Summary

Daily Weather History Graph

Daily Weather History Graph

Search for Another Location

Airport:

Trip Planner

Search our weather history database for the weather conditions in past years. The results will help you decide how hot, cold, wet, or windy it might be!

Date:

Astronomy

Mar. 15, 2013 Rise Set
Actual Time 7:35 AM CDT 7:30 PM CDT
Civil Twilight 7:06 AM CDT 7:59 PM CDT
Nautical Twilight 6:31 AM CDT 8:34 PM CDT
Astronomical Twilight 5:56 AM CDT 9:09 PM CDT
Moon 9:13 AM CDT (3/15) 11:59 PM CDT (3/15)
Length of Visible Light 12h 53m
Length of Day
11h 54m
Waxing Crescent, 15% of the Moon is Illuminated
Mar 15
Waxing Crescent
Mar 19
First Quarter
Mar 27
Full
Apr 2
Last Quarter
Apr 10
New

Hourly Weather History & Observations

Time (CDT) Temp. Windchill Dew Point Humidity Pressure Visibility Wind Dir Wind Speed Gust Speed Precip Events Conditions
12:10 AM 24.8 °F 15.3 °F 23.0 °F 93% 30.01 in 4.0 mi NW 9.2 mph - N/A   Clear
12:30 AM 28.4 °F 19.1 °F 26.6 °F 93% 30.01 in 5.0 mi NNW 10.4 mph - N/A   Scattered Clouds
12:50 AM 26.6 °F 16.2 °F 26.6 °F 100% 30.00 in 4.0 mi NNW 11.5 mph - N/A   Mostly Cloudy
1:10 AM 26.6 °F 16.8 °F 24.8 °F 93% 30.00 in 4.0 mi NNW 10.4 mph - N/A   Mostly Cloudy
1:30 AM 26.6 °F 14.3 °F 24.8 °F 93% 30.00 in 4.0 mi NNW 16.1 mph - N/A   Overcast
1:50 AM 24.8 °F 11.5 °F 21.2 °F 86% 30.01 in 5.0 mi NNW 17.3 mph - N/A   Overcast
2:10 AM 24.8 °F 12.4 °F 21.2 °F 86% 30.01 in 5.0 mi NW 15.0 mph - N/A   Overcast
2:30 AM 24.8 °F 13.4 °F 21.2 °F 86% 30.01 in 5.0 mi NW 12.7 mph - N/A   Overcast
2:50 AM 24.8 °F 13.4 °F 21.2 °F 86% 30.00 in 7.0 mi NW 12.7 mph - N/A   Overcast
3:10 AM 24.8 °F 14.0 °F 21.2 °F 86% 30.00 in 5.0 mi NNW 11.5 mph - N/A   Overcast
3:30 AM 24.8 °F 14.6 °F 21.2 °F 86% 29.99 in 4.0 mi NNW 10.4 mph - N/A   Overcast
3:50 AM 24.8 °F 14.6 °F 21.2 °F 86% 29.97 in 4.0 mi North 10.4 mph - N/A   Overcast
4:10 AM 24.8 °F 16.1 °F 23.0 °F 93% 29.96 in 5.0 mi NNW 8.1 mph - N/A   Overcast
4:30 AM 24.8 °F 16.9 °F 23.0 °F 93% 29.96 in 4.0 mi NW 6.9 mph - N/A   Overcast
4:50 AM 24.8 °F 16.9 °F 24.8 °F 100% 29.96 in 4.0 mi NW 6.9 mph - N/A   Overcast
5:10 AM 24.8 °F 15.3 °F 24.8 °F 100% 29.96 in 4.0 mi NW 9.2 mph - 0.01 in   Overcast
5:30 AM 26.6 °F 18.2 °F 24.8 °F 93% 29.95 in 3.0 mi NNW 8.1 mph - 0.01 in   Overcast
5:50 AM 26.6 °F 17.5 °F 24.8 °F 93% 29.94 in 3.0 mi North 9.2 mph - 0.02 in   Overcast
6:10 AM 26.6 °F 17.5 °F 26.6 °F 100% 29.94 in 2.5 mi North 9.2 mph - N/A   Overcast
6:30 AM 28.4 °F 19.7 °F 26.6 °F 93% 29.95 in 3.0 mi North 9.2 mph - N/A   Overcast
6:50 AM 28.4 °F 21.2 °F 26.6 °F 93% 29.94 in 3.0 mi North 6.9 mph - 0.01 in   Overcast
7:10 AM 28.4 °F 22.2 °F 28.4 °F 100% 29.93 in 3.0 mi North 5.8 mph - N/A   Overcast
7:30 AM 30.2 °F 24.3 °F 28.4 °F 93% 29.93 in 4.0 mi North 5.8 mph - N/A   Mostly Cloudy
7:50 AM 30.2 °F 22.6 °F 28.4 °F 93% 29.93 in 2.5 mi NNE 8.1 mph - 0.01 in   Overcast
8:10 AM 30.2 °F 23.4 °F 28.4 °F 93% 29.93 in 3.0 mi North 6.9 mph - N/A   Overcast
8:30 AM 30.2 °F 22.6 °F 28.4 °F 93% 29.92 in 4.0 mi NE 8.1 mph - 0.01 in   Overcast
8:50 AM 30.2 °F 22.6 °F 28.4 °F 93% 29.92 in 5.0 mi NE 8.1 mph - 0.01 in   Overcast
9:10 AM 30.2 °F 21.3 °F 28.4 °F 93% 29.93 in 5.0 mi NE 10.4 mph - N/A   Overcast
9:30 AM 30.2 °F 21.3 °F 28.4 °F 93% 29.94 in 7.0 mi NE 10.4 mph - N/A   Overcast
9:50 AM 30.2 °F 22.6 °F 26.6 °F 86% 29.95 in 7.0 mi NE 8.1 mph - N/A   Overcast
10:10 AM 30.2 °F 21.9 °F 26.6 °F 86% 29.95 in 5.0 mi NNE 9.2 mph - N/A   Overcast
10:30 AM 30.2 °F 21.3 °F 26.6 °F 86% 29.93 in 5.0 mi ENE 10.4 mph - N/A   Overcast
10:50 AM 32.0 °F 24.8 °F 28.4 °F 87% 29.94 in 4.0 mi NNE 8.1 mph - N/A   Overcast
11:10 AM 32.0 °F 23.6 °F 28.4 °F 87% 29.91 in 4.0 mi ENE 10.4 mph - N/A   Overcast
11:30 AM 32.0 °F 23.6 °F 28.4 °F 87% 29.92 in 5.0 mi NE 10.4 mph - N/A   Overcast
11:50 AM 30.2 °F 21.9 °F 28.4 °F 93% 29.93 in 5.0 mi NE 9.2 mph - N/A   Overcast
12:10 PM 32.0 °F 24.2 °F 28.4 °F 87% 29.92 in 7.0 mi NE 9.2 mph - N/A   Overcast
12:30 PM 32.0 °F 24.2 °F 26.6 °F 80% 29.92 in 7.0 mi NE 9.2 mph - N/A   Overcast
12:50 PM 32.0 °F 23.0 °F 28.4 °F 87% 29.90 in 10.0 mi ENE 11.5 mph - N/A   Overcast
1:10 PM 32.0 °F 22.5 °F 26.6 °F 80% 29.90 in 10.0 mi ENE 12.7 mph - N/A   Overcast
1:30 PM 32.0 °F 24.2 °F 28.4 °F 87% 29.90 in 10.0 mi ENE 9.2 mph - N/A   Overcast
1:50 PM 32.0 °F 23.6 °F 26.6 °F 80% 29.88 in 10.0 mi East 10.4 mph - N/A   Overcast
2:10 PM 32.0 °F 23.6 °F 28.4 °F 87% 29.88 in 4.0 mi East 10.4 mph - N/A Snow Light Snow
2:30 PM 32.0 °F 24.2 °F 28.4 °F 87% 29.89 in 10.0 mi East 9.2 mph - N/A   Overcast
2:50 PM 32.0 °F 22.1 °F 28.4 °F 87% 29.86 in 10.0 mi East 13.8 mph - N/A   Overcast
3:10 PM 32.0 °F 22.1 °F 28.4 °F 87% 29.84 in 3.0 mi ESE 13.8 mph - N/A Snow Light Snow
3:30 PM 32.0 °F 22.5 °F 28.4 °F 87% 29.84 in 4.0 mi East 12.7 mph - 0.01 in   Overcast
3:50 PM 30.2 °F 22.6 °F 28.4 °F 93% 29.84 in 4.0 mi East 8.1 mph - 0.02 in Snow Light Snow
4:10 PM 30.2 °F 22.6 °F 28.4 °F 93% 29.85 in 7.0 mi East 8.1 mph - N/A   Overcast
4:30 PM 32.0 °F 24.8 °F 28.4 °F 87% 29.84 in 7.0 mi East 8.1 mph - N/A   Overcast
4:50 PM 30.2 °F 20.2 °F 28.4 °F 93% 29.82 in 4.0 mi East 12.7 mph - N/A Snow Light Snow
5:10 PM 30.2 °F 24.3 °F 28.4 °F 93% 29.86 in 5.0 mi NNE 5.8 mph - N/A   Overcast
5:30 PM 30.2 °F 23.4 °F 28.4 °F 93% 29.86 in 3.0 mi NNE 6.9 mph - 0.01 in Snow Light Snow
5:50 PM 30.2 °F 23.4 °F 28.4 °F 93% 29.86 in 0.8 mi NNE 6.9 mph - 0.01 in Snow Light Snow
6:10 PM 30.2 °F 21.9 °F 28.4 °F 93% 29.86 in 1.0 mi NNE 9.2 mph - N/A Snow Light Snow
6:30 PM 30.2 °F 22.6 °F 28.4 °F 93% 29.86 in 1.0 mi NNE 8.1 mph - N/A Snow Light Snow
6:50 PM 30.2 °F 23.4 °F 28.4 °F 93% 29.85 in 1.5 mi NE 6.9 mph - N/A Snow Light Snow
7:10 PM 28.4 °F 22.2 °F 28.4 °F 100% 29.87 in 7.0 mi NE 5.8 mph - N/A   Overcast
7:30 PM 28.4 °F 22.2 °F 28.4 °F 100% 29.86 in 7.0 mi NE 5.8 mph - N/A   Overcast
7:50 PM 30.2 °F 22.6 °F 28.4 °F 93% 29.88 in 3.0 mi NE 8.1 mph - N/A   Overcast
8:10 PM 30.2 °F 24.3 °F 28.4 °F 93% 29.88 in 2.5 mi NE 5.8 mph - N/A   Overcast
8:30 PM 28.4 °F 19.7 °F 26.6 °F 93% 29.89 in 3.0 mi NNE 9.2 mph - N/A   Overcast
8:50 PM 28.4 °F 21.2 °F 26.6 °F 93% 29.89 in 3.0 mi NE 6.9 mph - N/A   Overcast
9:10 PM 28.4 °F 21.2 °F 26.6 °F 93% 29.91 in 4.0 mi NNE 6.9 mph - N/A   Overcast
9:50 PM 26.6 °F 17.5 °F 26.6 °F 100% 29.92 in 3.0 mi NNE 9.2 mph - N/A   Overcast
10:10 PM 26.6 °F 16.8 °F 24.8 °F 93% 29.93 in 3.0 mi NNE 10.4 mph - N/A   Overcast
10:30 PM 26.6 °F 17.5 °F 24.8 °F 93% 29.93 in 3.0 mi NNE 9.2 mph - N/A   Overcast
10:50 PM 26.6 °F 16.8 °F 24.8 °F 93% 29.93 in 3.0 mi NNE 10.4 mph - N/A   Overcast
11:10 PM 26.6 °F 16.8 °F 24.8 °F 93% 29.94 in 2.5 mi NNE 10.4 mph - N/A   Overcast
11:30 PM 24.8 °F 14.6 °F 24.8 °F 100% 29.95 in 2.5 mi NNE 10.4 mph - N/A Snow Light Snow
11:50 PM 24.8 °F 14.0 °F 24.8 °F 100% 29.96 in 2.0 mi North 11.5 mph - N/A Snow Light Snow